When you browse on this site, cookies collect data to enhance your experience and personalize the content and advertising you see.
Visit our Privacy Policy to learn more. By continuing to use the site, you agree to this use of cookies and data.
  • In United Kingdom
  • List of Countries
  • For 7 days
  • Water Temperature
  • Weather Map
  • Weather Widgets
  • user-avatar
    Login

    Hourly Weather Droitwich

    Today, 18 September, Wednesday

    Time Temperature Precipitation Wind Pressure Humidity
    00:00 +10°C° 0 mm 1 mps 767 mmHg 90%
    01:00 +9°C° 0 mm 1 mps 767 mmHg 90%
    02:00 +9°C° 0 mm 1 mps 767 mmHg 90%
    03:00 +8°C° 0 mm 0 mps 767 mmHg 90%
    04:00 +8°C° 0 mm 0 mps 767 mmHg 90%
    05:00 +7°C° 0 mm 0 mps 767 mmHg 90%
    06:00 +7°C° 0 mm 0 mps 767 mmHg 88%
    07:00 +9°C° 0 mm 0 mps 767 mmHg 82%
    08:00 +11°C° 0 mm 0 mps 768 mmHg 76%
    09:00 +13°C° 0 mm 0 mps 768 mmHg 70%
    10:00 +14°C° 0 mm 0 mps 768 mmHg 65%
    11:00 +16°C° 0 mm 1 mps 767 mmHg 60%
    12:00 +19°C° 0 mm 1 mps 767 mmHg 55%
    13:00 +19°C° 0 mm 1 mps 767 mmHg 54%
    14:00 +20°C° 0 mm 1 mps 767 mmHg 53%
    15:00 +19°C° 0 mm 2 mps 767 mmHg 53%
    16:00 +18°C° 0 mm 2 mps 767 mmHg 59%
    17:00 +17°C° 0 mm 2 mps 767 mmHg 66%
    18:00 +15°C° 0 mm 2 mps 767 mmHg 73%
    19:00 +14°C° 0 mm 2 mps 767 mmHg 75%
    20:00 +13°C° 0 mm 2 mps 768 mmHg 77%
    21:00 +12°C° 0 mm 2 mps 768 mmHg 79%
    22:00 +12°C° 0 mm 1 mps 768 mmHg 81%
    23:00 +11°C° 0 mm 1 mps 768 mmHg 82%

    Tomorrow, 19 September, Thursday

    Time Temperature Precipitation Wind Pressure Humidity
    00:00 +11°C° 0 mm 1 mps 768 mmHg 84%
    01:00 +11°C° 0 mm 1 mps 768 mmHg 85%
    02:00 +10°C° 0 mm 1 mps 768 mmHg 87%
    03:00 +10°C° 0 mm 1 mps 768 mmHg 89%
    04:00 +10°C° 0 mm 1 mps 768 mmHg 89%
    05:00 +10°C° 0 mm 1 mps 768 mmHg 90%
    06:00 +10°C° 0 mm 1 mps 768 mmHg 90%
    07:00 +11°C° 0 mm 1 mps 768 mmHg 85%
    08:00 +13°C° 0 mm 1 mps 768 mmHg 79%
    09:00 +15°C° 0 mm 1 mps 769 mmHg 73%
    10:00 +18°C° 0 mm 1 mps 768 mmHg 68%
    11:00 +19°C° 0 mm 1 mps 768 mmHg 64%
    12:00 +21°C° 0 mm 1 mps 768 mmHg 59%
    13:00 +21°C° 0 mm 1 mps 768 mmHg 58%
    14:00 +21°C° 0 mm 1 mps 768 mmHg 56%
    15:00 +22°C° 0 mm 1 mps 768 mmHg 55%
    16:00 +21°C° 0 mm 1 mps 767 mmHg 60%
    17:00 +19°C° 0 mm 1 mps 767 mmHg 66%
    18:00 +16°C° 0 mm 0 mps 767 mmHg 71%
    19:00 +15°C° 0 mm 0 mps 767 mmHg 74%
    20:00 +15°C° 0 mm 1 mps 767 mmHg 77%
    21:00 +14°C° 0 mm 1 mps 767 mmHg 80%
    22:00 +14°C° 0 mm 1 mps 767 mmHg 82%
    23:00 +13°C° 0 mm 1 mps 767 mmHg 83%

    Day after tomorrow, 20 September, Friday

    Time Temperature Precipitation Wind Pressure Humidity
    00:00 +13°C° 0 mm 1 mps 767 mmHg 84%
    01:00 +12°C° 0 mm 1 mps 766 mmHg 85%
    02:00 +12°C° 0 mm 1 mps 766 mmHg 86%
    03:00 +12°C° 0 mm 1 mps 766 mmHg 87%
    04:00 +11°C° 0 mm 1 mps 765 mmHg 88%
    05:00 +11°C° 0 mm 1 mps 765 mmHg 90%
    06:00 +11°C° 0 mm 1 mps 765 mmHg 91%
    07:00 +12°C° 0 mm 2 mps 765 mmHg 86%
    08:00 +13°C° 0 mm 3 mps 765 mmHg 81%
    09:00 +14°C° 0 mm 4 mps 765 mmHg 76%
    10:00 +17°C° 0 mm 4 mps 764 mmHg 70%
    11:00 +17°C° 0 mm 5 mps 763 mmHg 64%
    12:00 +19°C° 0 mm 5 mps 763 mmHg 58%
    13:00 +20°C° 0 mm 5 mps 762 mmHg 56%
    14:00 +20°C° 0 mm 6 mps 761 mmHg 53%
    15:00 +20°C° 0 mm 6 mps 761 mmHg 51%
    16:00 +19°C° 0 mm 5 mps 760 mmHg 54%
    17:00 +16°C° 0 mm 5 mps 759 mmHg 57%
    18:00 +15°C° 0 mm 4 mps 759 mmHg 61%
    19:00 +14°C° 0 mm 5 mps 759 mmHg 63%
    20:00 +13°C° 0 mm 5 mps 759 mmHg 65%
    21:00 +12°C° 0 mm 5 mps 758 mmHg 67%
    22:00 +12°C° 0 mm 5 mps 758 mmHg 69%
    23:00 +12°C° 0 mm 5 mps 757 mmHg 70%

    21 September, Saturday

    Time Temperature Precipitation Wind Pressure Humidity
    00:00 +12°C° 0 mm 4 mps 757 mmHg 71%
    01:00 +11°C° 0 mm 4 mps 756 mmHg 71%
    02:00 +11°C° 0 mm 4 mps 756 mmHg 71%
    03:00 +11°C° 0 mm 4 mps 756 mmHg 70%
    04:00 +11°C° 0 mm 4 mps 755 mmHg 71%
    05:00 +10°C° 0 mm 3 mps 754 mmHg 71%
    06:00 +10°C° 0 mm 3 mps 754 mmHg 72%
    07:00 +11°C° 0 mm 4 mps 753 mmHg 69%
    08:00 +13°C° 0 mm 4 mps 753 mmHg 65%
    09:00 +15°C° 0 mm 5 mps 753 mmHg 62%
    10:00 +16°C° 0 mm 5 mps 753 mmHg 60%
    11:00 +19°C° 0 mm 5 mps 752 mmHg 57%
    12:00 +21°C° 0 mm 5 mps 752 mmHg 55%
    13:00 +22°C° 0 mm 5 mps 751 mmHg 55%
    14:00 +22°C° 0 mm 5 mps 750 mmHg 56%
    15:00 +23°C° 0 mm 5 mps 750 mmHg 56%
    16:00 +22°C° 0 mm 5 mps 749 mmHg 62%
    17:00 +21°C° 0 mm 4 mps 749 mmHg 68%
    18:00 +19°C° 0 mm 4 mps 749 mmHg 74%
    19:00 +19°C° 0.1 mm 4 mps 749 mmHg 75%
    20:00 +18°C° 0.1 mm 4 mps 748 mmHg 76%
    21:00 +17°C° 0.1 mm 5 mps 748 mmHg 77%
    22:00 +18°C° 0.3 mm 4 mps 748 mmHg 80%
    23:00 +18°C° 0.3 mm 4 mps 748 mmHg 82%

    22 September, Sunday

    Time Temperature Precipitation Wind Pressure Humidity
    00:00 +18°C° 0.3 mm 4 mps 747 mmHg 85%
    01:00 +18°C° 0.7 mm 3 mps 747 mmHg 88%
    02:00 +18°C° 0.7 mm 3 mps 747 mmHg 91%
    03:00 +18°C° 0.7 mm 3 mps 747 mmHg 94%
    04:00 +17°C° 0.3 mm 3 mps 747 mmHg 94%
    05:00 +17°C° 0.3 mm 3 mps 747 mmHg 94%
    06:00 +17°C° 0.3 mm 3 mps 747 mmHg 94%
    07:00 +17°C° 0 mm 4 mps 747 mmHg 90%
    08:00 +17°C° 0 mm 4 mps 748 mmHg 85%
    09:00 +17°C° 0 mm 5 mps 748 mmHg 81%
    10:00 +17°C° 0 mm 5 mps 748 mmHg 74%
    11:00 +19°C° 0 mm 5 mps 748 mmHg 68%
    12:00 +19°C° 0 mm 6 mps 748 mmHg 62%
    13:00 +19°C° 0 mm 5 mps 748 mmHg 62%
    14:00 +19°C° 0 mm 5 mps 748 mmHg 62%
    15:00 +19°C° 0 mm 5 mps 748 mmHg 62%
    16:00 +17°C° 0.2 mm 5 mps 748 mmHg 68%
    17:00 +17°C° 0.2 mm 4 mps 749 mmHg 74%
    18:00 +15°C° 0.2 mm 4 mps 749 mmHg 80%
    19:00 +14°C° 0 mm 4 mps 749 mmHg 82%
    20:00 +12°C° 0 mm 3 mps 750 mmHg 85%
    21:00 +11°C° 0 mm 3 mps 751 mmHg 88%
    22:00 +11°C° 0 mm 3 mps 751 mmHg 89%
    23:00 +11°C° 0 mm 3 mps 751 mmHg 90%

    23 September, Monday

    Time Temperature Precipitation Wind Pressure Humidity
    00:00 +10°C° 0 mm 3 mps 751 mmHg 91%
    01:00 +10°C° 0 mm 3 mps 752 mmHg 92%
    02:00 +10°C° 0 mm 3 mps 752 mmHg 93%
    03:00 +10°C° 0 mm 3 mps 752 mmHg 94%
    04:00 +10°C° 0 mm 2 mps 752 mmHg 94%
    05:00 +9°C° 0 mm 2 mps 752 mmHg 93%
    06:00 +9°C° 0 mm 2 mps 752 mmHg 93%
    07:00 +11°C° 0 mm 3 mps 752 mmHg 89%
    08:00 +13°C° 0 mm 4 mps 752 mmHg 85%
    09:00 +14°C° 0 mm 5 mps 751 mmHg 81%
    10:00 +15°C° 0 mm 5 mps 751 mmHg 81%
    11:00 +15°C° 0 mm 5 mps 751 mmHg 81%
    12:00 +16°C° 0 mm 5 mps 750 mmHg 81%
    13:00 +15°C° 0.4 mm 5 mps 750 mmHg 85%
    14:00 +15°C° 0.4 mm 5 mps 749 mmHg 89%
    15:00 +14°C° 0.4 mm 5 mps 749 mmHg 92%
    16:00 +15°C° 0.2 mm 4 mps 749 mmHg 93%
    17:00 +15°C° 0.2 mm 4 mps 749 mmHg 95%
    18:00 +16°C° 0.2 mm 3 mps 749 mmHg 96%
    19:00 +16°C° 0.1 mm 3 mps 749 mmHg 96%
    20:00 +16°C° 0.1 mm 3 mps 750 mmHg 96%
    21:00 +15°C° 0.1 mm 4 mps 750 mmHg 96%
    22:00 +15°C° 0 mm 4 mps 750 mmHg 96%
    23:00 +14°C° 0 mm 4 mps 751 mmHg 96%
    Show more